{"data":{"norad_id":46807,"epoch":"2026-09-20T04:14:27.494304Z","epoch_age_seconds":101554,"freshness":"FRESH","line1":"1 46807U 20076A   26263.17670711  .00001826  00000+0  13499-3 0  9994","line2":"2 46807  34.9933 232.0842 0000848 258.5959 101.4654 15.03036723322415","mean_motion":15.03036723,"eccentricity":8.48e-5,"inclination_deg":34.9933,"raan_deg":232.0842,"arg_perigee_deg":258.5959,"mean_anomaly_deg":101.4654,"bstar":0.00013499,"rev_number":32241,"period_min":95.806042391687,"perigee_km":556.95058884239,"apogee_km":558.1268794469,"semimajor_km":6935.6757341446,"source":"CELESTRAK","updated_at":"2026-09-20T09:00:14.798150Z"}}